sat.trackr.live / text

‹ back to catalog

STARLINK-34422

NORAD 64415 · 2025-129D

PAYLOAD ACTIVE UNKNOWN

§ Identity

Operator
Country
US
Launch date
2025-06-17
Launch site
AFWTR
Launch vehicle
Mass (kg)
RCS (m²)

Purposes: comms

External: N2YO · Heavens-Above · Gunter

§ Orbital elements

Epoch: 2026-05-24T23:37:56.237088Z

Period
96.11 min
Inclination
70.0007°
Eccentricity
0.0003376
Mean motion
14.98333777 rev/d
Perigee alt
569.7 km
Apogee alt
574.4 km
Semi-major
6,950.2 km
B*
1.6685e-4
RAAN
242.1654°
Arg perigee
268.6742°
Mean anomaly
91.4030°
Rev number
5,265

§ Raw data

STARLINK-344221 64415U 25129D   26144.98467867  .00001899  00000+0  16685-3 0  99962 64415  70.0007 242.1654 0003376 268.6742  91.4030 14.98333777 52651

JSON: /api/v1/satellites/64415 · /tle

For live sub-satellite position, see the globe view (requires WebGL).

§ Visibility from observer

Set your observer location to see the next 7 days of passes ≥ 10°. The values pass through the URL so the page stays shareable.

No JS? Fill the form by hand. The geolocation button needs JavaScript.